Date,TemperatureHighF,TemperatureAvgF,TemperatureLowF,DewpointHighF,DewpointAvgF,DewpointLowF,HumidityHigh,HumidityAvg,HumidityLow,PressureMaxIn,PressureMinIn,WindSpeedMaxMPH,WindSpeedAvgMPH,GustSpeedMaxMPH,PrecipitationSumIn
2013-2-2,66,59,50,51,42,35,89,54,35,30.20,30.12,10,4,10,0.00
2013-2-3,59,51,44,50,42,33,94,71,49,30.14,30.04,11,4,14,0.00
2013-2-4,64,56,46,50,41,29,90,59,27,30.08,29.97,11,2,12,0.00
2013-2-5,56,48,43,48,42,34,92,78,61,30.05,29.97,15,4,18,0.00
2013-2-6,57,47,42,47,37,21,92,68,39,30.11,30.05,14,5,14,0.00
2013-2-7,56,46,39,48,39,35,94,78,59,30.12,29.98,16,5,20,0.11
2013-2-8,52,43,38,45,38,35,95,84,60,29.99,29.89,10,3,15,0.33
2013-2-9,54,46,38,45,35,26,89,67,42,30.06,29.94,12,4,15,0.00
2013-2-10,54,46,40,45,36,26,85,66,51,30.06,29.97,11,3,12,0.00
2013-2-11,54,48,43,45,40,32,91,74,54,30.20,30.02,13,4,13,0.00
2013-2-12,54,48,43,48,42,31,94,81,58,30.31,30.20,11,3,13,0.00
2013-2-13,58,52,45,50,41,33,85,65,49,30.27,30.14,8,3,10,0.00
2013-2-14,66,58,51,49,39,30,76,50,29,30.15,30.07,9,3,14,0.00
2013-2-15,76,66,56,39,33,28,43,30,19,30.17,30.11,10,4,13,0.00
2013-2-16,70,63,54,41,33,26,41,32,23,30.13,29.95,11,4,12,0.00
2013-2-17,59,52,44,47,40,31,93,68,36,29.95,29.90,15,5,17,0.00
2013-5-4,50,49,48,49,48,47,98,97,95,29.65,29.60,30,16,36,0.66
2013-5-5,52,51,48,51,50,46,99,95,80,29.77,29.63,47,25,51,0.00
2013-5-6,57,53,51,54,52,50,99,96,83,29.93,29.76,36,15,45,0.01
2013-5-7,61,55,52,55,52,48,98,90,73,30.01,29.91,16,6,20,0.00
2013-5-8,65,54,47,54,50,47,98,86,63,30.08,30.00,13,4,13,0.00
2013-5-9,66,54,47,54,50,46,98,87,66,30.09,30.03,11,3,13,0.00
2013-5-10,73,64,54,58,53,50,88,70,54,30.10,29.99,19,4,25,0.00
2013-5-11,84,74,66,60,53,48,57,49,36,30.04,29.96,12,4,13,0.00
2013-5-12,87,75,64,60,51,40,58,43,31,30.03,29.90,11,5,15,0.00
2013-5-13,79,68,50,58,47,35,93,50,28,29.97,29.88,15,4,17,0.00
2013-5-14,66,54,48,53,49,44,97,84,64,29.98,29.90,16,3,18,0.00
2013-5-15,68,54,48,51,47,42,90,76,51,30.02,29.93,20,7,25,0.00
2013-5-16,70,59,51,56,50,44,88,73,54,29.97,29.90,19,7,21,0.00
2013-5-17,70,58,50,52,46,40,81,66,52,30.00,29.88,17,6,20,0.00
2013-5-18,70,56,47,53,46,34,91,69,51,30.06,29.98,19,8,20,0.00
2013-5-19,80,65,48,52,46,37,89,52,29,30.03,29.88,23,7,25,0.00
2013-5-20,81,74,67,46,36,29,38,26,20,29.92,29.83,16,4,18,0.00
2013-5-21,70,62,51,52,40,25,65,45,23,29.88,29.79,26,9,30,0.00
2013-5-22,65,52,44,42,38,30,80,60,35,29.90,29.80,26,9,27,0.00
2013-5-23,58,52,45,46,40,36,77,65,52,29.95,29.87,25,8,28,0.00
2013-5-24,68,55,44,50,42,37,85,63,51,29.96,29.88,18,6,19,0.00
2013-5-25,66,53,43,50,44,39,89,75,52,29.99,29.92,17,5,20,0.00
2013-5-26,71,58,47,54,50,44,95,77,52,30.06,29.99,16,6,19,0.00
2013-5-27,70,58,50,54,50,43,93,74,55,30.05,29.95,15,6,23,0.00
2013-5-28,73,61,51,60,54,45,97,78,59,29.96,29.82,23,7,25,0.00
2013-5-29,75,64,51,58,50,35,88,60,42,29.86,29.79,19,8,25,0.00
2013-5-30,78,60,47,50,43,24,87,55,22,29.90,29.81,19,9,21,0.00
2013-5-31,85,70,50,49,38,24,72,34,16,29.90,29.81,19,7,20,0.00
2013-6-1,92,79,60,51,41,33,59,28,16,29.84,29.65,22,6,22,0.00
2013-6-2,70,57,48,53,48,44,96,74,41,29.75,29.62,14,5,19,0.00
2013-6-3,58,52,49,54,50,48,98,94,83,29.84,29.71,23,9,30,0.01
2013-6-4,56,52,50,54,51,48,97,94,89,29.94,29.83,16,4,20,0.00
2013-6-5,57,53,50,52,50,49,97,92,84,29.96,29.91,11,3,15,0.01
2013-6-6,57,51,48,53,50,47,98,94,84,29.92,29.86,9,2,12,0.00
2013-6-7,67,55,48,57,52,48,98,91,66,29.88,29.73,11,2,11,0.00
2013-6-8,57,53,49,54,52,48,99,96,86,29.82,29.71,24,10,32,0.01
2013-6-9,56,54,52,55,53,52,99,98,94,29.87,29.79,21,10,29,0.02
2013-6-10,61,56,52,56,54,51,97,90,79,29.93,29.83,16,6,20,0.00
2013-6-11,67,58,51,57,54,50,98,88,71,29.93,29.84,11,3,15,0.01
2013-6-12,68,58,52,56,51,38,97,78,47,29.94,29.85,17,5,19,0.00
2013-6-13,76,60,48,54,47,41,88,64,41,29.99,29.89,17,7,24,0.00
2013-6-14,79,70,58,49,37,18,58,31,14,29.89,29.76,13,4,18,0.00
2013-6-15,65,51,46,53,48,37,97,90,36,29.94,29.77,10,3,12,0.00
2013-6-16,83,67,47,54,46,29,97,51,21,29.99,29.93,13,5,20,0.00
2013-6-17,80,68,57,55,47,29,77,50,21,29.97,29.90,16,7,21,0.00
2013-6-18,70,60,50,52,48,39,93,66,48,29.94,29.87,20,8,26,0.00
2013-6-19,72,63,56,52,43,33,56,49,37,29.95,29.88,17,7,24,0.00
2013-6-20,78,64,53,52,44,32,68,48,32,29.89,29.85,21,7,27,0.00
2013-6-21,81,65,51,51,43,28,80,47,20,29.90,29.82,14,6,21,0.00
2013-6-22,82,72,58,53,40,22,64,32,17,29.86,29.76,14,5,26,0.00
2013-6-23,67,62,54,59,56,51,92,81,66,29.82,29.76,13,4,18,0.00
2013-6-24,60,57,55,59,56,54,98,97,92,29.89,29.76,13,6,18,0.05
2013-6-25,70,60,55,64,59,54,99,94,78,29.99,29.89,11,5,14,0.00
2013-6-26,82,70,60,64,62,59,98,77,54,29.98,29.91,8,3,11,0.01
2013-6-29,91,88,86,39,38,36,19,17,16,29.73,29.70,15,8,19,0.00
2013-6-30,96,86,77,58,46,37,30,25,18,29.72,29.63,17,6,21,0.00
2013-7-1,84,74,64,62,54,39,78,52,22,29.81,29.66,21,5,23,0.00
2013-7-2,77,69,62,59,57,52,83,67,45,29.90,29.77,21,6,27,0.00
2013-7-3,77,66,55,60,57,47,93,72,40,29.86,29.73,8,2,8,0.00
2013-7-4,79,64,53,60,56,51,96,76,40,29.76,29.70,10,2,11,0.00
2013-7-5,73,58,50,57,53,49,96,84,57,29.77,29.72,11,3,13,0.00
2013-7-6,60,53,50,54,51,49,97,93,80,29.80,29.74,13,-13,14,0.01
2013-7-7,56,52,50,52,50,49,98,95,86,29.85,29.77,15,4,15,0.00
2013-7-8,69,57,50,57,49,25,98,79,20,29.94,29.84,7,2,9,0.00
2013-7-9,80,65,49,60,48,16,96,60,13,29.96,29.89,13,3,15,0.00
2013-7-10,70,57,50,58,52,41,97,86,36,29.95,29.87,11,2,12,0.00
2013-7-11,63,53,48,55,51,48,98,92,75,29.94,29.87,12,4,13,0.01
2013-7-13,63,58,50,56,53,48,96,83,62,29.92,29.88,7,2,8,0.01
2013-7-14,83,65,51,57,49,36,97,59,28,29.93,29.85,8,2,9,0.00
2013-7-15,67,55,48,55,51,47,98,89,66,29.88,29.83,12,3,16,0.00
2013-7-16,67,56,50,55,52,50,97,87,64,29.96,29.85,11,3,14,0.00
2013-7-17,75,58,49,57,52,40,97,80,54,30.03,29.95,9,2,11,0.01
2013-7-18,76,62,49,58,52,40,98,73,34,29.98,29.86,7,2,10,0.00
2013-7-19,68,58,48,56,50,38,97,79,35,29.87,29.79,9,2,9,0.00
2013-7-20,60,52,48,54,50,47,98,94,81,29.83,29.77,10,2,12,0.01
2013-7-21,67,57,49,60,54,48,98,90,75,29.86,29.75,19,6,21,0.01
2013-7-22,67,60,56,60,57,54,97,91,73,29.92,29.83,20,6,21,0.00
2013-7-23,69,61,55,60,57,54,97,87,71,29.98,29.91,9,3,11,0.00
2013-7-24,69,60,53,59,56,52,97,88,70,29.95,29.87,7,2,8,0.00
2013-7-25,65,55,51,58,53,50,98,93,75,30.00,29.89,9,2,10,0.01
2013-7-26,62,55,51,57,53,50,98,94,81,30.06,29.98,8,2,10,0.01
2013-7-27,60,54,51,57,53,51,98,96,87,30.00,29.85,10,2,11,0.01
2013-7-28,58,53,50,55,52,50,99,97,91,29.88,29.82,11,3,12,0.02
2013-7-29,56,53,51,55,53,51,99,98,94,29.99,29.85,16,6,19,0.00
2013-7-30,56,53,51,54,52,51,99,98,94,30.08,29.99,14,2,15,0.00
2013-7-31,68,56,50,57,52,48,99,87,68,30.07,29.95,12,3,14,0.00
2013-8-1,76,62,51,57,52,40,97,72,46,29.99,29.86,13,4,18,0.00
2013-8-2,67,61,52,55,48,29,83,64,31,29.91,29.85,11,4,17,0.00
2013-8-14,88,76,67,57,52,42,58,43,24,29.85,29.77,17,9,20,0.00
2013-8-15,88,76,71,63,46,37,49,34,23,29.86,29.78,19,5,20,0.00
2013-8-30,80,78,76,55,54,53,47,43,40,29.84,29.82,5,3,6,0.00
2013-8-31,80,75,71,58,53,45,55,46,37,29.88,29.81,15,3,15,0.00
2013-9-1,76,72,67,67,58,43,84,63,33,29.86,29.81,12,3,13,0.00
2013-9-2,80,69,65,66,62,57,92,80,56,29.86,29.78,11,-6,16,0.00
2013-9-3,79,69,63,60,56,50,76,63,39,29.89,29.82,11,6,16,0.00
2013-9-4,82,70,61,57,54,48,73,58,43,29.91,29.83,14,6,16,0.00
2013-9-5,83,68,58,58,53,50,77,61,42,29.90,29.81,18,7,20,0.00
2013-9-6,86,77,67,55,50,47,56,40,28,29.86,29.74,15,3,15,0.00
2013-9-7,78,69,62,57,52,48,74,55,37,29.82,29.75,9,3,16,0.00
2013-9-8,71,62,54,60,52,43,96,73,50,29.81,29.72,7,2,8,0.00
2013-9-9,75,61,52,60,55,51,98,83,59,29.76,29.69,7,1,7,0.01
2013-9-10,60,55,52,56,54,51,98,95,87,29.88,29.73,22,0,25,0.02
2013-9-11,64,57,54,58,55,53,98,93,80,29.98,29.88,11,4,12,0.00
2013-9-12,72,60,54,61,56,51,95,87,67,29.91,29.81,10,3,11,0.01
2013-9-13,81,72,58,60,52,35,91,52,21,29.83,29.66,15,3,16,0.00
2013-9-14,81,70,60,58,49,32,75,49,21,29.70,29.61,16,4,17,0.00
2013-9-15,81,69,56,58,51,39,81,53,34,29.74,29.65,11,4,14,0.00
2013-9-16,81,69,60,59,51,45,72,55,41,29.79,29.70,18,5,18,0.00
2013-9-17,74,64,54,54,50,46,86,63,45,29.80,29.74,18,0,26,0.00
2013-9-18,78,68,55,53,48,42,82,51,34,29.81,29.72,16,5,20,0.00
2013-9-19,82,72,65,50,40,26,50,31,21,29.76,29.68,11,4,14,0.00
2013-9-20,71,59,52,58,52,38,95,79,31,29.84,29.69,8,2,10,0.00
2013-9-21,61,57,54,60,55,48,97,93,77,29.86,29.79,17,4,17,0.19
2013-9-22,70,60,53,56,50,47,81,71,53,29.91,29.84,16,5,21,0.00
2013-9-23,80,69,59,55,47,39,63,45,36,29.91,29.82,16,5,17,0.00
2013-9-24,77,67,59,57,50,40,63,54,46,29.88,29.77,21,6,25,0.00
2013-9-25,67,59,53,50,43,38,69,56,46,29.86,29.75,22,8,27,0.00
2013-9-26,72,59,49,45,41,32,81,53,32,29.90,29.73,18,5,24,0.00
2013-9-27,73,66,60,43,36,30,42,33,23,30.00,29.90,14,3,17,0.00
2013-9-28,78,68,60,46,36,28,43,31,17,30.00,29.93,11,5,14,0.00
2013-9-29,81,69,60,57,40,23,82,38,17,30.01,29.95,16,5,18,0.00
2013-9-30,78,66,60,60,51,36,79,58,38,29.98,29.85,15,6,18,0.00
2013-10-1,72,61,54,55,49,43,80,66,47,29.91,29.82,16,8,20,0.00
2013-10-2,72,61,54,52,44,22,74,55,20,29.93,29.83,18,5,21,0.00
2013-10-3,74,62,51,40,34,23,65,37,17,29.92,29.81,17,6,23,0.00
2013-10-4,78,70,66,30,28,26,24,21,16,30.01,29.93,12,-23,13,0.00
2013-10-5,86,72,65,30,24,17,24,17,8,30.09,30.00,14,4,14,0.00
2013-10-6,81,72,66,40,24,18,29,17,10,30.02,29.92,11,4,12,0.00
2013-10-7,73,64,52,53,37,19,81,43,15,29.92,29.83,13,2,17,0.00
2013-10-8,55,50,48,51,48,44,94,90,81,29.86,29.74,12,3,14,0.00
2013-10-9,61,52,48,50,47,44,94,84,69,29.75,29.61,17,4,18,0.01
2013-10-10,53,50,48,50,48,45,95,92,83,29.99,29.74,20,6,21,0.00
2013-10-11,62,53,45,52,47,38,94,80,51,30.02,29.93,8,3,10,0.00
2013-10-12,67,57,50,52,45,38,81,65,48,29.94,29.86,13,4,16,0.00
2013-10-13,62,53,49,53,48,42,95,83,50,30.00,29.86,14,3,16,0.00
2013-10-14,77,66,58,45,41,35,55,41,26,30.03,29.91,12,4,16,0.00
2013-10-15,79,69,61,42,38,34,43,33,22,29.94,29.85,12,5,15,0.00
2013-10-16,77,69,62,44,34,27,36,28,18,30.00,29.91,16,6,18,0.00
2013-10-17,75,69,63,46,34,28,38,28,21,29.99,29.88,13,4,16,0.00
2013-10-18,77,69,63,47,34,29,38,28,22,29.96,29.89,9,3,11,0.00
2013-10-19,79,70,52,51,34,26,80,28,18,29.97,29.92,10,3,10,0.00
2013-10-20,78,66,48,53,40,28,91,41,23,29.94,29.83,6,2,8,0.00
2013-10-21,65,56,48,52,44,32,94,68,34,29.92,29.85,9,2,10,0.00
2013-10-22,61,52,46,52,47,38,96,85,51,29.96,29.88,6,2,8,0.00
2013-10-23,64,50,45,52,47,35,96,90,35,29.93,29.86,11,2,13,0.01
2013-10-24,60,50,45,52,48,44,97,92,76,30.04,29.91,8,2,12,0.00
2013-10-25,71,60,47,54,46,34,95,64,32,30.10,30.00,7,2,9,0.01
2013-10-26,73,64,49,53,42,32,94,46,28,30.04,29.93,9,2,14,0.00
2013-10-27,64,52,47,54,47,39,95,84,42,29.96,29.75,16,4,23,0.01
2013-10-28,55,50,48,52,48,45,93,90,82,29.85,29.70,19,5,28,0.02
2013-10-29,60,51,47,53,48,43,95,89,73,29.98,29.85,14,5,16,0.03
2013-10-30,65,55,48,51,46,42,86,70,53,30.08,29.98,11,3,14,0.00
2013-10-31,66,59,52,49,44,41,70,58,47,30.08,29.99,9,4,11,0.00
2013-11-1,73,64,56,46,39,30,53,41,26,30.05,29.94,12,5,16,0.00
2013-11-2,72,65,60,52,36,24,62,36,20,29.96,29.82,9,4,14,0.00
2013-11-14,54,53,51,45,44,43,76,71,66,29.79,29.78,13,6,19,0.00
2013-11-15,61,53,46,49,44,37,83,70,56,29.78,29.65,18,6,23,0.00
2013-11-16,61,51,45,48,43,36,88,75,59,29.88,29.72,18,6,20,0.00
2013-11-17,56,51,46,49,46,42,90,84,76,30.05,29.88,11,2,13,0.00
2013-11-18,57,51,48,48,45,43,85,79,68,30.10,30.03,11,3,12,0.00
2013-11-19,58,53,47,52,48,42,92,83,73,30.07,29.94,7,2,10,0.07
2013-11-20,55,54,50,53,52,49,97,95,92,29.94,29.81,16,4,16,0.13
2013-11-21,58,51,45,52,46,38,97,84,54,29.88,29.80,13,4,16,0.14
2013-11-22,62,54,49,46,40,36,70,60,44,29.93,29.85,11,4,15,0.00
2013-11-23,58,53,48,50,42,34,83,69,50,30.06,29.91,17,6,20,0.00
2013-11-24,64,54,48,48,41,37,73,61,40,30.18,30.04,12,4,13,0.00
2013-11-25,65,58,51,45,41,39,67,54,44,30.23,30.15,9,4,10,0.00
2013-11-26,64,59,54,43,39,36,54,48,39,30.17,29.96,9,4,12,0.00
2013-11-27,62,57,54,49,42,36,78,57,39,29.95,29.78,20,8,27,0.00
2013-11-28,61,56,52,49,44,38,88,65,50,30.00,29.78,17,6,21,0.00
2013-11-29,70,60,53,48,40,36,67,49,33,30.15,30.00,11,4,17,0.00
2013-11-30,71,61,53,49,38,31,68,44,29,30.18,30.10,12,3,12,0.00
2013-12-2,61,52,50,48,46,45,85,80,62,29.88,29.86,17,10,19,0.00
2013-12-3,61,49,42,48,40,27,92,72,53,29.88,29.78,16,5,26,0.00
2013-12-4,53,44,39,30,24,17,60,44,30,29.99,29.87,13,4,19,0.00
2013-12-5,53,42,35,26,19,12,54,39,25,30.12,29.99,11,5,16,0.00
2013-12-6,52,43,36,43,31,15,92,63,41,30.14,29.99,14,4,19,0.09
2013-12-7,49,44,38,47,35,28,95,73,50,30.17,29.91,22,6,29,0.38
2013-12-8,44,39,34,31,28,21,76,63,51,30.21,30.11,14,5,20,0.00
2013-12-9,53,43,34,37,26,12,70,51,26,30.32,30.20,12,5,15,0.00
2013-12-10,61,51,43,34,15,2,42,24,12,30.31,30.09,11,4,14,0.00
2013-12-11,60,55,50,45,24,10,63,31,16,30.12,30.07,11,5,15,0.00
2013-12-12,61,53,46,49,31,9,89,48,15,30.17,30.10,10,4,14,0.00
2013-12-13,59,52,46,42,30,19,65,43,28,30.23,30.13,9,3,12,0.00
2013-12-14,68,60,51,42,28,18,46,30,18,30.26,30.20,12,4,17,0.00
2013-12-15,74,65,57,32,21,12,27,19,11,30.24,30.09,12,5,15,0.00
2013-12-16,75,69,65,33,23,12,25,18,11,30.09,30.00,11,4,16,0.00
2013-12-17,74,66,60,47,29,19,59,26,14,30.06,29.94,8,3,12,0.00
2013-12-18,64,51,46,50,43,27,93,77,25,29.94,29.78,15,3,22,0.00
2013-12-19,55,48,44,44,39,26,89,72,40,29.85,29.69,31,5,31,0.00
2013-12-20,57,51,45,35,25,14,56,37,25,29.94,29.83,19,5,26,0.00
2013-12-21,57,52,46,48,41,20,85,69,29,30.03,29.89,13,3,15,0.00
2013-12-22,57,53,49,50,41,36,93,64,48,30.23,30.02,14,4,16,0.00
2013-12-23,68,58,50,47,38,34,61,48,38,30.32,30.22,12,4,13,0.00
2013-12-24,70,63,58,41,36,31,41,36,29,30.22,30.07,11,4,18,0.00
2013-12-25,74,66,59,36,32,27,36,29,23,30.16,30.10,12,4,13,0.00
2013-12-26,77,68,61,28,21,15,27,17,12,30.13,30.06,12,4,17,0.00
2013-12-27,74,66,60,30,19,6,25,16,9,30.11,29.99,11,4,22,0.00
2013-12-28,70,63,58,45,22,8,45,21,10,30.00,29.87,11,4,12,0.00
2013-12-29,69,63,58,40,24,16,38,23,16,30.10,29.97,11,3,13,0.00
2013-12-30,63,59,55,43,27,13,50,30,14,30.17,30.09,12,5,15,0.00
2013-12-31,65,58,50,46,29,14,81,36,18,30.17,30.05,9,2,12,0.00
2014-1-1,71,63,55,37,23,13,37,22,14,30.11,30.01,9,2,10,0.00
2014-1-2,70,63,58,30,19,13,23,18,15,30.06,30.01,9,4,13,0.00